| time (UTC) | temp F | wind direction | speed MPH | gust MPH | rain 1hr in | rain 24hr in | rain mn in | humidity % | barometer mb |
| 20260505204457 | 83 | 11 | 2.0 | 10.0 | 0.00 | 0.00 | 0.00 | 81 | 1008.6 |
| 20260505203626 | 83 | 13 | 1.0 | 10.0 | 0.00 | 0.00 | 0.00 | 81 | 1008.6 |
| 20260505203117 | 83 | 24 | 3.0 | 8.0 | 0.00 | 0.00 | 0.00 | 81 | 1008.7 |
| 20260505202938 | 83 | 0 | 5.0 | 8.0 | 0.00 | 0.00 | 0.00 | 81 | 1008.7 |
| 20260505202035 | 83 | 25 | 0.0 | 5.0 | 0.00 | 0.00 | 0.00 | 81 | 1008.7 |
| 20260505201529 | 83 | 11 | 2.0 | 8.0 | 0.00 | 0.00 | 0.00 | 81 | 1008.4 |
| 20260505201401 | 83 | 93 | 2.0 | 8.0 | 0.00 | 0.00 | 0.00 | 80 | 1008.9 |
| 20260505200514 | 83 | 42 | 1.0 | 5.0 | 0.00 | 0.00 | 0.00 | 81 | 1008.6 |
| 20260505200005 | 83 | 26 | 0.0 | 2.0 | 0.00 | 0.00 | 0.00 | 81 | 1008.7 |
| 20260505195449 | 83 | 13 | 2.0 | 2.0 | 0.00 | 0.00 | 0.00 | 82 | 1008.5 |
| 20260505194936 | 83 | 32 | 0.0 | 5.0 | 0.00 | 0.00 | 0.00 | 83 | 1008.5 |
| 20260505194435 | 83 | 37 | 1.0 | 5.0 | 0.00 | 0.00 | 0.00 | 83 | 1008.5 |
| 20260505194032 | 83 | 30 | 0.0 | 5.0 | 0.00 | 0.00 | 0.00 | 83 | 1008.4 |
| 20260505192903 | 83 | 38 | 0.0 | 8.0 | 0.00 | 0.00 | 0.00 | 83 | 1008.2 |
| 20260505192357 | 83 | 69 | 4.0 | 8.0 | 0.00 | 0.00 | 0.00 | 83 | 1008.4 |
| 20260505191848 | 83 | 345 | 0.0 | 5.0 | 0.00 | 0.00 | 0.00 | 83 | 1008.3 |
| 20260505191721 | 83 | 66 | 3.0 | 5.0 | 0.00 | 0.00 | 0.00 | 83 | 1008.1 |
| 20260505190835 | 83 | 31 | 0.0 | 2.0 | 0.00 | 0.00 | 0.00 | 83 | 1008.1 |
| 20260505190325 | 83 | 1 | 0.0 | 2.0 | 0.00 | 0.00 | 0.00 | 83 | 1008.2 |
| 20260505190205 | 83 | 55 | 0.0 | 2.0 | 0.00 | 0.00 | 0.00 | 83 | 1008.2 |
| 20260505185310 | 83 | 18 | 0.0 | 5.0 | 0.00 | 0.00 | 0.00 | 82 | 1008.1 |
| 20260505184759 | 83 | 265 | 1.0 | 5.0 | 0.00 | 0.00 | 0.00 | 82 | 1008.1 |
| 20260505184427 | 84 | 31 | 0.0 | 5.0 | 0.00 | 0.00 | 0.00 | 81 | 1008.2 |
| 20260505183239 | 83 | 349 | 1.0 | 8.0 | 0.00 | 0.00 | 0.00 | 82 | 1008.3 |
| 20260505182728 | 84 | 31 | 0.0 | 10.0 | 0.00 | 0.00 | 0.00 | 82 | 1008.5 |
| 20260505182220 | 84 | 177 | 0.0 | 10.0 | 0.00 | 0.00 | 0.00 | 82 | 1008.2 |
| 20260505181716 | 84 | 31 | 0.0 | 10.0 | 0.00 | 0.00 | 0.00 | 82 | 1008.3 |
| 20260505181205 | 84 | 12 | 0.0 | 10.0 | 0.00 | 0.00 | 0.00 | 81 | 1008.2 |
| 20260505181041 | 84 | 26 | 0.0 | 15.0 | 0.00 | 0.00 | 0.00 | 81 | 1008.6 |
| 20260505180137 | 84 | 44 | 0.0 | 15.0 | 0.00 | 0.00 | 0.00 | 81 | 1008.6 |
| 20260505175631 | 84 | 150 | 2.0 | 17.0 | 0.00 | 0.00 | 0.00 | 81 | 1008.4 |
| 20260505175124 | 84 | 39 | 0.0 | 17.0 | 0.00 | 0.00 | 0.00 | 80 | 1008.6 |
| 20260505174616 | 84 | 12 | 2.0 | 17.0 | 0.00 | 0.00 | 0.00 | 80 | 1008.8 |
| 20260505174109 | 84 | 23 | 0.0 | 17.0 | 0.00 | 0.00 | 0.00 | 79 | 1008.9 |
| 20260505173553 | 85 | 9 | 0.0 | 15.0 | 0.00 | 0.00 | 0.00 | 79 | 1008.8 |
| 20260505173428 | 85 | 58 | 4.0 | 15.0 | 0.00 | 0.00 | 0.00 | 79 | 1008.9 |
| 20260505172531 | 85 | 63 | 3.0 | 15.0 | 0.00 | 0.00 | 0.00 | 79 | 1008.9 |
| 20260505172024 | 85 | 52 | 0.0 | 15.0 | 0.00 | 0.00 | 0.00 | 79 | 1008.9 |
| 20260505171518 | 85 | 27 | 0.0 | 15.0 | 0.00 | 0.00 | 0.00 | 79 | 1009.0 |
| 20260505171000 | 85 | 347 | 0.0 | 15.0 | 0.00 | 0.00 | 0.00 | 79 | 1009.0 |
| 20260505170448 | 85 | 24 | 0.0 | 15.0 | 0.00 | 0.00 | 0.00 | 78 | 1009.1 |
| 20260505165945 | 85 | 34 | 0.0 | 13.0 | 0.00 | 0.00 | 0.00 | 78 | 1009.1 |
| 20260505165853 | 85 | 357 | 2.0 | 10.0 | 0.00 | 0.00 | 0.00 | 78 | 1008.9 |
| 20260505165308 | 85 | 50 | 0.0 | 10.0 | 0.00 | 0.00 | 0.00 | 78 | 1008.9 |
| 20260505164411 | 85 | 47 | 0.0 | 5.0 | 0.00 | 0.00 | 0.00 | 78 | 1009.0 |
| 20260505163858 | 85 | 115 | 0.0 | 13.0 | 0.00 | 0.00 | 0.00 | 77 | 1009.2 |
| 20260505163348 | 85 | 34 | 0.0 | 13.0 | 0.00 | 0.00 | 0.00 | 78 | 1009.3 |
| 20260505162841 | 85 | 206 | 3.0 | 8.0 | 0.00 | 0.00 | 0.00 | 77 | 1009.2 |
| 20260505162333 | 85 | 352 | 1.0 | 5.0 | 0.00 | 0.00 | 0.00 | 76 | 1009.1 |
| 20260505161823 | 85 | 56 | 0.0 | 8.0 | 0.00 | 0.00 | 0.00 | 76 | 1009.1 |
| 20260505161320 | 85 | 7 | 0.0 | 17.0 | 0.00 | 0.00 | 0.00 | 76 | 1009.3 |
| 20260505161136 | 85 | 48 | 1.0 | 17.0 | 0.00 | 0.00 | 0.00 | 75 | 1009.4 |
| 20260505160305 | 86 | 59 | 1.0 | 8.0 | 0.00 | 0.00 | 0.00 | 75 | 1009.5 |
| 20260505160118 | 86 | 38 | 2.0 | 8.0 | 0.00 | 0.00 | 0.00 | 75 | 1009.4 |
| 20260505153154 | 86 | 47 | 0.0 | 10.0 | 0.00 | 0.00 | 0.00 | 75 | 1009.6 |
| 20260505153013 | 86 | 351 | 0.0 | 15.0 | 0.00 | 0.00 | 0.00 | 75 | 1009.7 |
| 20260505152124 | 86 | 57 | 0.0 | 15.0 | 0.00 | 0.00 | 0.00 | 75 | 1009.6 |
| 20260505151605 | 86 | 245 | 0.0 | 10.0 | 0.00 | 0.00 | 0.00 | 75 | 1009.5 |
| 20260505151057 | 86 | 33 | 0.0 | 5.0 | 0.00 | 0.00 | 0.00 | 75 | 1009.5 |
| 20260505150551 | 86 | 335 | 0.0 | 5.0 | 0.00 | 0.00 | 0.00 | 75 | 1009.7 |
| 20260505140354 | 86 | 37 | 0.0 | 10.0 | 0.00 | 0.00 | 0.00 | 76 | 1009.8 |
| 20260505130126 | 86 | 57 | 0.0 | 10.0 | 0.00 | 0.00 | 0.00 | 75 | 1009.3 |
| 20260505125038 | 86 | 38 | 0.0 | 5.0 | 0.00 | 0.00 | 0.00 | 77 | 1009.3 |
| 20260505124523 | 86 | 32 | 0.0 | 8.0 | 0.00 | 0.00 | 0.00 | 77 | 1009.1 |
| 20260505124013 | 86 | 49 | 0.0 | 8.0 | 0.00 | 0.00 | 0.00 | 77 | 1009.2 |
| 20260505123522 | 86 | 59 | 1.0 | 8.0 | 0.00 | 0.00 | 0.00 | 77 | 1009.3 |
| 20260505123002 | 86 | 31 | 0.0 | 10.0 | 0.00 | 0.00 | 0.00 | 77 | 1009.3 |
| 20260505122903 | 86 | 39 | 0.0 | 17.0 | 0.00 | 0.00 | 0.00 | 77 | 1009.3 |
| 20260505121932 | 86 | 56 | 3.0 | 17.0 | 0.00 | 0.00 | 0.00 | 77 | 1009.2 |
| 20260505121426 | 86 | 43 | 0.0 | 13.0 | 0.00 | 0.00 | 0.00 | 77 | 1009.3 |
| 20260505120918 | 86 | 30 | 0.0 | 23.0 | 0.00 | 0.00 | 0.00 | 77 | 1009.3 |
| 20260505120410 | 86 | 68 | 12.0 | 23.0 | 0.00 | 0.00 | 0.00 | 77 | 1009.1 |
| 20260505115907 | 86 | 5 | 1.0 | 23.0 | 0.00 | 0.00 | 0.00 | 77 | 1008.9 |
| 20260505115355 | 86 | 88 | 4.0 | 23.0 | 0.00 | 0.00 | 0.00 | 77 | 1008.8 |
| 20260505114846 | 86 | 30 | 0.0 | 33.0 | 0.00 | 0.00 | 0.00 | 77 | 1008.7 |
| 20260505114340 | 85 | 60 | 5.0 | 33.0 | 0.00 | 0.00 | 0.00 | 77 | 1008.7 |
| 20260505113829 | 86 | 82 | 6.0 | 20.0 | 0.00 | 0.00 | 0.00 | 77 | 1008.5 |
| 20260505113330 | 86 | 76 | 5.0 | 25.0 | 0.00 | 0.00 | 0.00 | 77 | 1008.5 |
| 20260505112807 | 86 | 77 | 14.0 | 25.0 | 0.00 | 0.00 | 0.00 | 77 | 1008.4 |
| 20260505112259 | 86 | 17 | 1.0 | 23.0 | 0.00 | 0.00 | 0.00 | 77 | 1008.3 |
| 20260505112140 | 86 | 51 | 12.0 | 23.0 | 0.00 | 0.00 | 0.00 | 77 | 1008.6 |
| 20260505111247 | 86 | 58 | 6.0 | 20.0 | 0.00 | 0.00 | 0.00 | 77 | 1008.6 |
| 20260505110731 | 86 | 48 | 1.0 | 13.0 | 0.00 | 0.00 | 0.00 | 77 | 1008.6 |
| 20260505110224 | 86 | 70 | 2.0 | 13.0 | 0.00 | 0.00 | 0.00 | 77 | 1008.4 |
| 20260505102133 | 88 | 46 | 11.0 | 15.0 | 0.00 | 0.00 | 0.00 | 76 | 1007.9 |
| 20260505101630 | 88 | 45 | 4.0 | 15.0 | 0.00 | 0.00 | 0.00 | 75 | 1008.0 |
| 20260505101125 | 88 | 23 | 0.0 | 15.0 | 0.00 | 0.00 | 0.00 | 75 | 1008.1 |
| 20260505100600 | 88 | 35 | 6.0 | 15.0 | 0.00 | 0.00 | 0.00 | 74 | 1008.0 |
| 20260505095558 | 89 | 61 | 9.0 | 13.0 | 0.00 | 0.00 | 0.00 | 73 | 1007.9 |
| 20260505095044 | 89 | 67 | 2.0 | 10.0 | 0.00 | 0.00 | 0.00 | 73 | 1007.9 |
| 20260505094539 | 89 | 67 | 6.0 | 10.0 | 0.00 | 0.00 | 0.00 | 73 | 1007.8 |
| 20260505094025 | 89 | 64 | 1.0 | 10.0 | 0.00 | 0.00 | 0.00 | 73 | 1007.6 |
| 20260505093914 | 89 | 69 | 1.0 | 8.0 | 0.00 | 0.00 | 0.00 | 73 | 1007.4 |
| 20260505093350 | 89 | 339 | 2.0 | 8.0 | 0.00 | 0.00 | 0.00 | 73 | 1007.4 |
| 20260505092457 | 89 | 163 | 1.0 | 15.0 | 0.00 | 0.00 | 0.00 | 72 | 1007.4 |
| 20260505091934 | 89 | 317 | 2.0 | 20.0 | 0.00 | 0.00 | 0.00 | 72 | 1007.5 |
| 20260505091433 | 90 | 37 | 0.0 | 10.0 | 0.00 | 0.00 | 0.00 | 71 | 1007.1 |
| 20260505091422 | 90 | 61 | 3.0 | 13.0 | 0.00 | 0.00 | 0.00 | 71 | 1007.1 |
| 20260505090833 | 89 | 281 | 0.0 | 17.0 | 0.00 | 0.00 | 0.00 | 71 | 1007.3 |
| 20260505090254 | 89 | 36 | 4.0 | 17.0 | 0.00 | 0.00 | 0.00 | 72 | 1007.2 |
| 20260505085349 | 90 | 82 | 5.0 | 15.0 | 0.00 | 0.00 | 0.00 | 72 | 1007.1 |
| 20260505085208 | 90 | 42 | 6.0 | 15.0 | 0.00 | 0.00 | 0.00 | 71 | 1007.0 |
| 20260505084314 | 91 | 81 | 1.0 | 17.0 | 0.00 | 0.00 | 0.00 | 71 | 1007.2 |
| 20260505084204 | 91 | 71 | 9.0 | 17.0 | 0.00 | 0.00 | 0.00 | 71 | 1007.2 |
| 20260505083300 | 91 | 15 | 1.0 | 8.0 | 0.00 | 0.00 | 0.00 | 71 | 1007.2 |
| 20260505082755 | 91 | 5 | 0.0 | 8.0 | 0.00 | 0.00 | 0.00 | 72 | 1007.1 |
| 20260505082701 | 91 | 354 | 2.0 | 13.0 | 0.00 | 0.00 | 0.00 | 71 | 1007.1 |
| 20260505081734 | 91 | 10 | 4.0 | 17.0 | 0.00 | 0.00 | 0.00 | 71 | 1007.0 |
| 20260505081225 | 91 | 9 | 7.0 | 25.0 | 0.00 | 0.00 | 0.00 | 71 | 1007.0 |
| 20260505080723 | 92 | 261 | 15.0 | 23.0 | 0.00 | 0.00 | 0.00 | 70 | 1007.0 |
| 20260505080645 | 93 | 351 | 8.0 | 25.0 | 0.00 | 0.00 | 0.00 | 68 | 1007.2 |
| 20260505075639 | 93 | 301 | 10.0 | 25.0 | 0.00 | 0.00 | 0.00 | 68 | 1006.8 |
| 20260505075136 | 93 | 328 | 15.0 | 17.0 | 0.00 | 0.00 | 0.00 | 68 | 1006.8 |
| 20260505074629 | 92 | 315 | 8.0 | 20.0 | 0.00 | 0.00 | 0.00 | 68 | 1006.8 |
| 20260505074117 | 92 | 348 | 6.0 | 20.0 | 0.00 | 0.00 | 0.00 | 68 | 1006.9 |
| 20260505073801 | 92 | 336 | 7.0 | 15.0 | 0.00 | 0.00 | 0.00 | 68 | 1006.9 |
| 20260505072551 | 91 | 30 | 4.0 | 15.0 | 0.00 | 0.00 | 0.00 | 70 | 1007.1 |
| 20260505072034 | 90 | 9 | 3.0 | 13.0 | 0.00 | 0.00 | 0.00 | 72 | 1007.1 |
| 20260505071533 | 89 | 325 | 6.0 | 13.0 | 0.00 | 0.00 | 0.00 | 73 | 1007.3 |
| 20260505071414 | 90 | 335 | 1.0 | 13.0 | 0.00 | 0.00 | 0.00 | 73 | 1007.2 |
| 20260505070516 | 89 | 331 | 4.0 | 20.0 | 0.00 | 0.00 | 0.00 | 74 | 1007.3 |
| 20260505070003 | 89 | 24 | 0.0 | 20.0 | 0.00 | 0.00 | 0.00 | 75 | 1007.4 |
| 20260505065507 | 89 | 18 | 7.0 | 17.0 | 0.00 | 0.00 | 0.00 | 74 | 1007.3 |
| 20260505064947 | 90 | 323 | 13.0 | 17.0 | 0.00 | 0.00 | 0.00 | 74 | 1007.2 |
| 20260505064447 | 90 | 319 | 2.0 | 15.0 | 0.00 | 0.00 | 0.00 | 74 | 1007.5 |
| 20260505063929 | 89 | 8 | 9.0 | 15.0 | 0.00 | 0.00 | 0.00 | 74 | 1007.4 |
| 20260505063423 | 89 | 312 | 6.0 | 13.0 | 0.00 | 0.00 | 0.00 | 73 | 1007.6 |
| 20260505062917 | 89 | 0 | 0.0 | 15.0 | 0.00 | 0.00 | 0.00 | 74 | 1007.7 |
| 20260505062414 | 89 | 5 | 0.0 | 17.0 | 0.00 | 0.00 | 0.00 | 74 | 1007.7 |
| 20260505061902 | 89 | 308 | 12.0 | 17.0 | 0.00 | 0.00 | 0.00 | 74 | 1007.4 |
| 20260505061723 | 89 | 313 | 13.0 | 17.0 | 0.00 | 0.00 | 0.00 | 74 | 1007.5 |
| 20260505060830 | 89 | 13 | 3.0 | 13.0 | 0.00 | 0.00 | 0.00 | 73 | 1007.4 |
| 20260505060325 | 89 | 26 | 0.0 | 13.0 | 0.00 | 0.00 | 0.00 | 74 | 1007.7 |
| 20260505055815 | 89 | 37 | 0.0 | 20.0 | 0.00 | 0.00 | 0.00 | 73 | 1007.4 |
| 20260505055257 | 90 | 46 | 1.0 | 20.0 | 0.00 | 0.00 | 0.00 | 74 | 1007.7 |
| 20260505054759 | 90 | 7 | 10.0 | 20.0 | 0.00 | 0.00 | 0.00 | 73 | 1007.7 |
| 20260505054241 | 91 | 203 | 11.0 | 17.0 | 0.00 | 0.00 | 0.00 | 71 | 1007.7 |
| 20260505053730 | 92 | 37 | 1.0 | 17.0 | 0.00 | 0.00 | 0.00 | 71 | 1007.8 |
| 20260505053227 | 94 | 272 | 2.0 | 13.0 | 0.00 | 0.00 | 0.00 | 68 | 1007.9 |
| 20260505052706 | 92 | 5 | 2.0 | 10.0 | 0.00 | 0.00 | 0.00 | 70 | 1008.1 |
| 20260505052146 | 92 | 293 | 2.0 | 17.0 | 0.00 | 0.00 | 0.00 | 70 | 1008.0 |
| 20260505051726 | 92 | 60 | 1.0 | 17.0 | 0.00 | 0.00 | 0.00 | 71 | 1008.0 |
| 20260505051637 | 91 | 333 | 8.0 | 17.0 | 0.00 | 0.00 | 0.00 | 72 | 1007.9 |
| 20260505051056 | 91 | 38 | 9.0 | 17.0 | 0.00 | 0.00 | 0.00 | 71 | 1008.1 |
| 20260505050113 | 90 | 355 | 6.0 | 15.0 | 0.00 | 0.00 | 0.00 | 71 | 1008.4 |
| 20260505041507 | 90 | 321 | 2.0 | 15.0 | 0.00 | 0.00 | 0.00 | 71 | 1008.9 |
| 20260505041000 | 91 | 292 | 4.0 | 17.0 | 0.00 | 0.00 | 0.00 | 71 | 1008.8 |
| 20260505040441 | 91 | 309 | 9.0 | 17.0 | 0.00 | 0.00 | 0.00 | 71 | 1008.9 |
| 20260505035937 | 91 | 2 | 6.0 | 20.0 | 0.00 | 0.00 | 0.00 | 70 | 1008.9 |
| 20260505035423 | 92 | 191 | 8.0 | 20.0 | 0.00 | 0.00 | 0.00 | 69 | 1008.9 |
| 20260505034915 | 92 | 114 | 6.0 | 15.0 | 0.00 | 0.00 | 0.00 | 68 | 1008.9 |
| 20260505034406 | 92 | 215 | 11.0 | 20.0 | 0.00 | 0.00 | 0.00 | 70 | 1009.2 |
| 20260505033856 | 90 | 178 | 7.0 | 20.0 | 0.00 | 0.00 | 0.00 | 71 | 1009.1 |
| 20260505033400 | 89 | 287 | 6.0 | 20.0 | 0.00 | 0.00 | 0.00 | 71 | 1009.4 |
| 20260505032845 | 89 | 227 | 12.0 | 17.0 | 0.00 | 0.00 | 0.00 | 72 | 1009.4 |
| 20260505032334 | 89 | 298 | 6.0 | 15.0 | 0.00 | 0.00 | 0.00 | 73 | 1009.4 |
| 20260505031828 | 89 | 166 | 3.0 | 13.0 | 0.00 | 0.00 | 0.00 | 72 | 1009.4 |
| 20260505031326 | 88 | 7 | 2.0 | 20.0 | 0.00 | 0.00 | 0.00 | 73 | 1009.5 |
| 20260505030816 | 89 | 195 | 9.0 | 20.0 | 0.00 | 0.00 | 0.00 | 74 | 1009.5 |
| 20260505030310 | 88 | 220 | 3.0 | 10.0 | 0.00 | 0.00 | 0.00 | 73 | 1009.6 |
| 20260505025806 | 88 | 260 | 5.0 | 10.0 | 0.00 | 0.00 | 0.00 | 74 | 1009.5 |
| 20260505025245 | 88 | 25 | 0.0 | 10.0 | 0.00 | 0.00 | 0.00 | 74 | 1009.9 |
| 20260505024732 | 87 | 352 | 2.0 | 15.0 | 0.00 | 0.00 | 0.00 | 75 | 1009.7 |
| 20260505024223 | 87 | 27 | 0.0 | 15.0 | 0.00 | 0.00 | 0.00 | 76 | 1009.8 |
| 20260505023719 | 88 | 76 | 1.0 | 20.0 | 0.00 | 0.00 | 0.00 | 75 | 1009.8 |
| 20260505023540 | 87 | 205 | 2.0 | 25.0 | 0.00 | 0.00 | 0.00 | 75 | 1009.8 |
| 20260505022715 | 87 | 208 | 16.0 | 30.0 | 0.00 | 0.00 | 0.00 | 77 | 1009.7 |
| 20260505022200 | 89 | 109 | 7.0 | 30.0 | 0.00 | 0.00 | 0.00 | 75 | 1009.9 |
| 20260505021643 | 89 | 23 | 2.0 | 15.0 | 0.00 | 0.00 | 0.00 | 74 | 1009.8 |
| 20260505021132 | 86 | 12 | 2.0 | 15.0 | 0.00 | 0.00 | 0.00 | 76 | 1009.8 |
| 20260505020627 | 87 | 355 | 8.0 | 15.0 | 0.00 | 0.00 | 0.00 | 75 | 1010.0 |
| 20260505020113 | 86 | 17 | 2.0 | 15.0 | 0.00 | 0.00 | 0.00 | 77 | 1010.1 |
| 20260505020001 | 86 | 335 | 2.0 | 15.0 | 0.00 | 0.00 | 0.00 | 77 | 1010.1 |
| 20260505015059 | 85 | 38 | 3.0 | 15.0 | 0.00 | 0.00 | 0.00 | 78 | 1010.0 |
| 20260505015002 | 86 | 211 | 2.0 | 15.0 | 0.00 | 0.00 | 0.00 | 78 | 1010.2 |
| 20260505014431 | 86 | 16 | 4.0 | 15.0 | 0.00 | 0.00 | 0.00 | 78 | 1010.1 |
| 20260505013534 | 86 | 4 | 5.0 | 15.0 | 0.00 | 0.00 | 0.00 | 78 | 1010.1 |
| 20260505013025 | 87 | 334 | 11.0 | 15.0 | 0.00 | 0.00 | 0.00 | 77 | 1010.3 |
| 20260505012519 | 87 | 11 | 1.0 | 13.0 | 0.00 | 0.00 | 0.00 | 76 | 1010.2 |
| 20260505012018 | 87 | 347 | 5.0 | 15.0 | 0.00 | 0.00 | 0.00 | 76 | 1010.2 |
| 20260505011520 | 89 | 336 | 8.0 | 13.0 | 0.00 | 0.00 | 0.00 | 75 | 1009.9 |
| 20260505011000 | 88 | 39 | 0.0 | 17.0 | 0.00 | 0.00 | 0.00 | 75 | 1010.2 |
| 20260505010436 | 87 | 3 | 9.0 | 17.0 | 0.00 | 0.00 | 0.00 | 77 | 1010.2 |
| 20260505005931 | 86 | 147 | 1.0 | 17.0 | 0.00 | 0.00 | 0.00 | 77 | 1010.3 |
| 20260505005428 | 87 | 32 | 5.0 | 17.0 | 0.00 | 0.00 | 0.00 | 76 | 1010.4 |
| 20260505004924 | 87 | 28 | 0.0 | 17.0 | 0.00 | 0.00 | 0.00 | 76 | 1010.3 |
| 20260505004415 | 87 | 6 | 2.0 | 15.0 | 0.00 | 0.00 | 0.00 | 76 | 1010.2 |
| 20260505003908 | 87 | 5 | 0.0 | 13.0 | 0.00 | 0.00 | 0.00 | 76 | 1010.4 |
| 20260505003402 | 87 | 195 | 9.0 | 17.0 | 0.00 | 0.00 | 0.00 | 76 | 1010.4 |
| 20260505002856 | 87 | 168 | 8.0 | 17.0 | 0.00 | 0.00 | 0.00 | 76 | 1010.4 |
| 20260505002335 | 87 | 224 | 7.0 | 15.0 | 0.00 | 0.00 | 0.00 | 77 | 1010.3 |
| 20260505001839 | 87 | 20 | 2.0 | 10.0 | 0.00 | 0.00 | 0.00 | 73 | 1010.1 |
| 20260505001826 | 87 | 319 | 10.0 | 13.0 | 0.00 | 0.00 | 0.00 | 74 | 1010.2 |
| 20260505000810 | 86 | 46 | 1.0 | 10.0 | 0.00 | 0.00 | 0.00 | 74 | 1010.2 |
| 20260505000713 | 86 | 38 | 0.0 | 10.0 | 0.00 | 0.00 | 0.00 | 74 | 1010.2 |
| 20260504235748 | 86 | 21 | 4.0 | 10.0 | 0.00 | 0.00 | 0.00 | 74 | 1010.3 |
| 20260504235237 | 87 | 347 | 5.0 | 8.0 | 0.00 | 0.00 | 0.00 | 75 | 1010.1 |
| 20260504234728 | 88 | 51 | 0.0 | 0.0 | 0.00 | 0.00 | 0.00 | 73 | 1010.4 |
| 20260504234223 | 87 | 39 | 0.0 | 8.0 | 0.00 | 0.00 | 0.00 | 74 | 1010.2 |
| 20260504233717 | 86 | 34 | 0.0 | 13.0 | 0.00 | 0.00 | 0.00 | 75 | 1010.2 |
| 20260504233213 | 85 | 157 | 4.0 | 13.0 | 0.00 | 0.00 | 0.00 | 77 | 1010.1 |
| 20260504232649 | 85 | 221 | 3.0 | 13.0 | 0.00 | 0.00 | 0.00 | 78 | 1010.0 |
| 20260504232138 | 85 | 207 | 3.0 | 8.0 | 0.00 | 0.00 | 0.00 | 78 | 1010.1 |
| 20260504231629 | 86 | 41 | 0.0 | 8.0 | 0.00 | 0.00 | 0.00 | 76 | 1010.3 |
| 20260504231135 | 85 | 63 | 2.0 | 8.0 | 0.00 | 0.00 | 0.00 | 77 | 1010.2 |
| 20260504231020 | 84 | 48 | 0.0 | 10.0 | 0.00 | 0.00 | 0.00 | 78 | 1010.0 |
| 20260504230111 | 85 | 175 | 1.0 | 8.0 | 0.00 | 0.00 | 0.00 | 78 | 1010.0 |
| 20260504225556 | 85 | 74 | 0.0 | 8.0 | 0.00 | 0.00 | 0.00 | 77 | 1010.0 |
| 20260504225031 | 85 | 32 | 0.0 | 5.0 | 0.00 | 0.00 | 0.00 | 78 | 1010.2 |
| 20260504224523 | 84 | 41 | 0.0 | 2.0 | 0.00 | 0.00 | 0.00 | 77 | 1009.9 |
| 20260504224031 | 85 | 22 | 0.0 | 0.0 | 0.00 | 0.00 | 0.00 | 76 | 1010.1 |
| 20260504223508 | 84 | 19 | 0.0 | 0.0 | 0.00 | 0.00 | 0.00 | 78 | 1009.9 |
| 20260504222946 | 85 | 42 | 0.0 | 0.0 | 0.00 | 0.00 | 0.00 | 77 | 1009.9 |
| 20260504222438 | 84 | 35 | 0.0 | 0.0 | 0.00 | 0.00 | 0.00 | 78 | 1009.8 |
| 20260504222047 | 83 | 32 | 0.0 | 0.0 | 0.00 | 0.00 | 0.00 | 79 | 1009.9 |
| 20260504220913 | 82 | 17 | 0.0 | 0.0 | 0.00 | 0.00 | 0.00 | 80 | 1009.6 |
| 20260504220804 | 82 | 35 | 0.0 | 0.0 | 0.00 | 0.00 | 0.00 | 81 | 1009.5 |
| 20260504215854 | 81 | 25 | 0.0 | 0.0 | 0.00 | 0.00 | 0.00 | 82 | 1009.5 |
| 20260504215347 | 81 | 25 | 0.0 | 0.0 | 0.00 | 0.00 | 0.00 | 82 | 1009.3 |
| 20260504214840 | 81 | 27 | 0.0 | 2.0 | 0.00 | 0.00 | 0.00 | 82 | 1009.4 |
| 20260504214334 | 81 | 28 | 0.0 | 2.0 | 0.00 | 0.00 | 0.00 | 81 | 1009.5 |
| 20260504214256 | 81 | 28 | 0.0 | 0.0 | 0.00 | 0.00 | 0.00 | 81 | 1009.7 |
| 20260504213711 | 81 | 29 | 0.0 | 0.0 | 0.00 | 0.00 | 0.00 | 82 | 1009.8 |
| 20260504212810 | 81 | 20 | 0.0 | 0.0 | 0.00 | 0.00 | 0.00 | 81 | 1009.5 |
| 20260504212304 | 81 | 15 | 0.0 | 0.0 | 0.00 | 0.00 | 0.00 | 81 | 1009.3 |
| 20260504211743 | 82 | 26 | 0.0 | 0.0 | 0.00 | 0.00 | 0.00 | 81 | 1009.4 |
| 20260504211233 | 82 | 20 | 0.0 | 0.0 | 0.00 | 0.00 | 0.00 | 81 | 1009.3 |
| 20260504211216 | 81 | 21 | 0.0 | 2.0 | 0.00 | 0.00 | 0.00 | 81 | 1009.2 |
| 20260504210609 | 81 | 16 | 0.0 | 2.0 | 0.00 | 0.00 | 0.00 | 81 | 1009.4 |
| 20260504205713 | 82 | 26 | 0.0 | 2.0 | 0.00 | 0.00 | 0.00 | 81 | 1009.3 |